This demonstration page uses our WeatherBlox Daily Observations layout. Learn more.

Left ArrowRight Arrow

Hourly Observations for May 25, 2022

Temp ( °F °C ) Dew Point ( °F °C ) Humidity (%) Winds ( mph kmh ) Pressure ( in mb ) Visibility ( mi km ) Precip ( " mm )
12:53 am 00:53 Clear 55 12.8 46 7.8 72 72 NNE 9 15 29.85 1011 10 16 0.00 0.00
1:53 am 01:53 Clear 54 12.2 46 7.8 75 75 N 13 20 29.85 1011 10 16 0.00 0.00
2:53 am 02:53 Clear 53 11.7 44 6.7 72 72 N 10 17 29.87 1012 10 16 0.00 0.00
3:53 am 03:53 Clear 52 11.1 40 4.4 64 64 N 15 24 29.87 1012 10 16 0.00 0.00
4:53 am 04:53 Clear 50 10 41 5 71 71 NNW 7 11 29.89 1012 10 16 0.00 0.00
5:53 am 05:53 Clear 48 8.9 40 4.4 74 74 WNW 7 11 29.91 1013 10 16 0.00 0.00
6:53 am 06:53 Sunny 47 8.3 40 4.4 77 77 WNW 7 11 29.97 1015 10 16 0.00 0.00
7:53 am 07:53 Sunny 51 10.6 40 4.4 66 66 WNW 8 13 29.98 1015 10 16 0.00 0.00
8:53 am 08:53 Sunny 56 13.3 39 3.9 53 53 NW 7 11 29.98 1015 10 16 0.00 0.00
9:53 am 09:53 Sunny 59 15 40 4.4 49 49 N 12 19 29.99 1016 10 16 0.00 0.00
10:53 am 10:53 Sunny 62 16.7 39 3.9 43 43 NW 3 6 29.98 1015 10 16 0.00 0.00
11:53 am 11:53 undefined 64 17.8 37 2.8 37 37 Calm 29.97 1015 10 16 0.00 0.00
12:53 pm 12:53 Sunny 68 20 36 2.2 31 31 ENE 7 11 29.95 1014 10 16 0.00 0.00
1:53 pm 13:53 Sunny 71 21.7 34 1.1 26 26 VRB 7 11 29.92 1013 10 16 0.00 0.00
2:53 pm 14:53 Sunny 74 23.3 34 1.1 23 23 E 8 13 29.90 1013 10 16 0.00 0.00
3:53 pm 15:53 Sunny 75 23.9 33 0.6 22 22 VRB 5 7 29.88 1012 10 16 0.00 0.00
4:53 pm 16:53 Sunny 78 25.6 32 0 19 19 NNE 9 15 29.86 1011 10 16 0.00 0.00
5:53 pm 17:53 Sunny 77 25 32 0 19 19 VRB 3 6 29.84 1011 10 16 0.00 0.00
6:53 pm 18:53 Sunny 78 25.6 31 -0.6 18 18 Calm 29.83 1010 10 16 0.00 0.00
7:53 pm 19:53 Sunny 78 25.6 31 -0.6 18 18 ENE 8 13 29.82 1010 10 16 0.00 0.00
8:53 pm 20:53 Clear 75 23.9 31 -0.6 20 20 E 6 9 29.83 1010 10 16 0.00 0.00
9:53 pm 21:53 Clear 72 22.2 30 -1.1 21 21 SE 5 7 29.85 1011 10 16 0.00 0.00
10:53 pm 22:53 Clear 67 19.4 30 -1.1 25 25 SSE 8 13 29.88 1012 10 16 0.00 0.00
11:53 pm 23:53 Clear 65 18.3 30 -1.1 27 27 SE 9 15 29.88 1012 10 16 0.00 0.00

Powered by AerisWeather